Stations météo

réclame
Mon MeteoGroup
Hemavan A, Suède (2101): Température de l'air & dewpoint: 15.06.2018 19:00:00 - 21.06.2018 19:00:00 (CEST)Hemavan A, Suède (2101): Vitesse du vent: 15.06.2018 19:00:00 - 21.06.2018 19:00:00 (CEST)Hemavan A, Suède (2101): Direction du vent: 15.06.2018 19:00:00 - 21.06.2018 19:00:00 (CEST)Hemavan A, Suède (2101): reduced air pressure: 15.06.2018 19:00:00 - 21.06.2018 19:00:00 (CEST)Hemavan A, Suède (2101): visibility: 15.06.2018 19:00:00 - 21.06.2018 19:00:00 (CEST)
Date & Time tt [°C] td [°C] ff [km/h] ff [knt] dd ppp [hPa] vv [km]
21.06.2018 19:00:00 8,9 3,1 14 8 N 1005,5 50
21.06.2018 18:00:00 9,2 3,0 18 10 N 1005,3 50
21.06.2018 17:00:00 9,9 2,7 18 10 N 1004,9 50
21.06.2018 16:00:00 10,7 2,8 18 10 NNW 1004,4 50
21.06.2018 15:00:00 10,3 3,3 14 8 N 1004,2 50
21.06.2018 14:00:00 10,8 3,8 25 14 N 1004,2 50
21.06.2018 13:00:00 11,1 3,1 11 6 WNW 1003,7 35
21.06.2018 12:00:00 9,6 2,4 11 6 NW 1004,1 45
21.06.2018 11:00:00 9,7 2,5 4 2 W 1003,9 40
21.06.2018 10:00:00 9,4 3,4 11 6 NW 1003,9 35
21.06.2018 09:00:00 7,9 4,1 4 2 NNW 1004,0 50
21.06.2018 08:00:00 6,9 2,8 11 6 WNW 1003,8 45
21.06.2018 07:00:00 6,3 3,8 0 0 N 1003,7 45
21.06.2018 06:00:00 6,1 3,9 7 4 WNW 1003,3 45
21.06.2018 05:00:00 5,7 3,5 11 6 NNW 1003,4 45
21.06.2018 04:00:00 5,7 3,7 7 4 NNW 1003,6 50
21.06.2018 03:00:00 5,7 3,5 4 2 NE 1003,6 45
21.06.2018 02:00:00 5,2 4,3 7 4 E 1003,5 35
21.06.2018 01:00:00 5,3 4,6 4 2 SE 1003,6 50
21.06.2018 00:00:00 5,9 3,9 7 4 NW 1003,2 7
20.06.2018 23:00:00 5,8 4,6 7 4 N 1002,9 17
20.06.2018 22:00:00 6,2 5,3 4 2 WNW 1002,7 6
20.06.2018 21:00:00 6,2 4,8 7 4 NNW 1002,4 7
20.06.2018 20:00:00 6,6 5,2 7 4 N 1002,3 20
20.06.2018 19:00:00 6,9 5,2 7 4 N 1002,3 19
20.06.2018 18:00:00 8,0 4,2 7 4 W 1002,0 23
20.06.2018 17:00:00 7,9 4,1 11 6 WSW 1001,7 45
20.06.2018 16:00:00 7,2 3,8 11 6 WNW 1002,0 7
20.06.2018 15:00:00 8,9 3,3 18 10 W 1000,9 45
20.06.2018 14:00:00 8,3 3,9 18 10 W 1000,7 50
20.06.2018 13:00:00 8,1 4,7 14 8 W 1000,2 45
20.06.2018 12:00:00 8,4 4,4 14 8 W 999,7 50
20.06.2018 11:00:00 8,1 3,7 7 4 WSW 999,3 50
20.06.2018 10:00:00 6,9 4,0 14 8 W 999,2 10
20.06.2018 09:00:00 7,2 4,3 7 4 WSW 998,6 15
20.06.2018 08:00:00 6,1 3,9 7 4 SSE 998,5 35
20.06.2018 07:00:00 6,2 4,4 7 4 WSW 998,1 11
20.06.2018 06:00:00 6,2 4,0 4 2 SSW 997,5 6
20.06.2018 05:00:00 5,9 3,4 0 0 N 997,3 11
20.06.2018 04:00:00 5,7 3,2 11 6 NNW 997,3 45
20.06.2018 03:00:00 6,1 3,9 4 2 W 997,1 10
20.06.2018 02:00:00 6,3 4,3 4 2 NE 996,3 50
20.06.2018 01:00:00 6,3 4,3 0 0 N 996,1 15
20.06.2018 00:00:00 6,4 3,7 4 2 SW 996,2 12
19.06.2018 23:00:00 6,4 5,0 4 2 ENE 995,8 30
19.06.2018 22:00:00 7,1 4,9 7 4 NNW 995,6 30
19.06.2018 21:00:00 7,4 4,7 11 6 W 994,9 50
19.06.2018 20:00:00 7,6 5,6 7 4 NNW 994,8 30
19.06.2018 19:00:00 8,2 6,0 4 2 WNW 994,6 50
19.06.2018 18:00:00 8,5 5,4 14 8 WNW 994,5 50
19.06.2018 17:00:00 10,2 2,8 18 10 W 993,2 50
19.06.2018 16:00:00 11,4 3,2 11 6 WNW 992,7 40
19.06.2018 15:00:00 10,3 3,8 18 10 WNW 993,3 50
19.06.2018 14:00:00 9,3 3,9 18 10 WNW 993,3 35
19.06.2018 13:00:00 8,6 4,0 18 10 NW 993,5 35
19.06.2018 12:00:00 7,5 4,6 14 8 NNW 993,8 50
19.06.2018 11:00:00 6,3 4,1 14 8 WNW 994,6 30
19.06.2018 10:00:00 5,6 4,4 11 6 WNW 995,1 12
19.06.2018 09:00:00 5,7 4,3 11 6 NW 995,2 10
19.06.2018 08:00:00 6,2 4,5 14 8 NW 995,3 8
19.06.2018 07:00:00 6,4 4,6 14 8 W 995,6 45
19.06.2018 06:00:00 6,4 5,0 18 10 W 996,4 6
19.06.2018 05:00:00 7,0 5,6 18 10 W 996,6 7
19.06.2018 04:00:00 8,2 7,9 4 2 N 996,6 45
19.06.2018 03:00:00 8,0 7,7 4 2 NNW 997,4 50
19.06.2018 02:00:00 8,5 8,2 4 2 WNW 998,2 18
19.06.2018 01:00:00 8,9 8,4 4 2 SW 998,7 45
19.06.2018 00:00:00 9,1 8,6 4 2 W 999,3 12
18.06.2018 23:00:00 9,8 8,6 0 0 N 999,8 35
18.06.2018 22:00:00 10,5 8,9 14 8 SE 999,9 19
18.06.2018 21:00:00 12,3 8,4 4 2 SSE 999,5 27
18.06.2018 20:00:00 13,4 7,2 7 4 E 999,6 50
18.06.2018 19:00:00 13,5 6,1 0 0 N 1000,0 50
18.06.2018 18:00:00 13,7 6,8 4 2 WNW 1000,4 50
18.06.2018 17:00:00 - - 7 4 W - 45
18.06.2018 16:00:00 12,8 7,5 4 2 N 1001,2 45
18.06.2018 15:00:00 11,4 8,1 4 2 NNE 1001,8 50
18.06.2018 14:00:00 10,8 8,7 7 4 N 1002,1 35
18.06.2018 13:00:00 10,2 8,5 4 2 NNE 1002,3 15
18.06.2018 12:00:00 10,5 7,7 0 0 N 1002,3 23
18.06.2018 11:00:00 9,4 7,8 4 2 SW 1002,9 25
18.06.2018 10:00:00 9,0 7,9 0 0 N 1003,3 3,9
18.06.2018 09:00:00 9,4 8,2 0 0 N 1003,8 4,7
18.06.2018 08:00:00 9,2 7,8 4 2 NW 1004,3 50
18.06.2018 07:00:00 8,9 7,8 4 2 NNW 1005,3 45
18.06.2018 06:00:00 8,8 7,7 4 2 N 1006,5 30
18.06.2018 05:00:00 8,7 7,5 4 2 S 1007,7 14
18.06.2018 04:00:00 8,7 7,6 4 2 SSW 1008,4 17
18.06.2018 03:00:00 9,1 7,5 14 8 SE 1009,0 21
18.06.2018 02:00:00 9,4 7,5 11 6 SSE 1009,8 13
18.06.2018 01:00:00 9,9 7,7 11 6 SSE 1010,0 50
18.06.2018 00:00:00 10,2 8,0 7 4 SSE 1010,4 35
17.06.2018 23:00:00 10,1 8,4 11 6 SSE 1011,1 22
17.06.2018 22:00:00 10,6 8,0 11 6 S 1011,5 35
17.06.2018 21:00:00 11,2 7,5 22 12 SSE 1011,8 27
17.06.2018 20:00:00 11,0 7,5 14 8 SSE 1012,2 30
17.06.2018 19:00:00 11,3 8,2 18 10 SE 1012,6 45
17.06.2018 18:00:00 11,3 8,2 18 10 SSE 1013,1 26
17.06.2018 17:00:00 10,9 8,6 11 6 SSE 1013,7 12
17.06.2018 16:00:00 12,7 6,7 22 12 SSE 1013,3 35
17.06.2018 15:00:00 11,5 8,0 14 8 SSE 1014,2 50
17.06.2018 14:00:00 16,5 3,9 25 14 SSE 1012,4 50
17.06.2018 13:00:00 17,5 5,4 22 12 SE 1012,9 45
17.06.2018 12:00:00 15,8 4,2 25 14 SE 1014,2 45
17.06.2018 11:00:00 14,6 3,4 18 10 SSE 1014,9 45
17.06.2018 10:00:00 14,1 3,3 18 10 S 1015,5 50
17.06.2018 09:00:00 12,2 1,5 14 8 SSE 1016,4 45
17.06.2018 08:00:00 7,6 4,5 4 2 WNW 1017,8 35
17.06.2018 07:00:00 5,2 4,8 0 0 N 1018,8 45
17.06.2018 06:00:00 2,6 2,5 0 0 N 1019,6 5
17.06.2018 05:00:00 0,4 0,3 0 0 N 1019,9 0,3
17.06.2018 04:00:00 -0,5 -0,6 0 0 N 1020,0 0,3
17.06.2018 03:00:00 0,6 0,5 4 2 SE 1019,9 12
17.06.2018 02:00:00 1,2 0,9 0 0 N 1019,5 13
17.06.2018 01:00:00 1,5 0,9 0 0 N 1019,5 20
17.06.2018 00:00:00 3,4 2,5 4 2 SSW 1018,8 40
16.06.2018 23:00:00 5,4 3,7 4 2 S 1018,1 35
16.06.2018 22:00:00 7,9 3,0 4 2 N 1017,1 45
16.06.2018 21:00:00 10,1 2,4 14 8 NW 1016,2 50
16.06.2018 20:00:00 10,3 2,4 7 4 W 1015,8 40
16.06.2018 19:00:00 10,6 2,2 11 6 WNW 1015,4 50
16.06.2018 18:00:00 10,6 2,4 14 8 WNW 1015,0 45
16.06.2018 17:00:00 10,1 4,2 11 6 WNW 1015,3 50
16.06.2018 16:00:00 8,8 3,8 14 8 W 1015,1 17
16.06.2018 15:00:00 10,6 3,6 11 6 WNW 1013,9 45
16.06.2018 14:00:00 9,9 3,6 18 10 NNW 1013,5 45
16.06.2018 13:00:00 11,4 2,9 11 6 W 1012,7 45
16.06.2018 12:00:00 11,4 2,7 18 10 WSW 1012,3 50
16.06.2018 11:00:00 8,9 3,9 18 10 NW 1012,4 35
16.06.2018 10:00:00 10,5 2,8 18 10 WSW 1011,1 50
16.06.2018 09:00:00 9,1 2,4 7 4 WSW 1011,0 45
16.06.2018 08:00:00 8,2 3,8 7 4 SW 1010,8 40
16.06.2018 07:00:00 7,4 4,0 7 4 SE 1010,3 25
16.06.2018 06:00:00 6,8 3,9 11 6 E 1009,9 26
16.06.2018 05:00:00 7,0 3,4 11 6 S 1009,9 11
16.06.2018 04:00:00 7,0 3,6 14 8 SE 1008,8 50
16.06.2018 03:00:00 7,0 3,4 7 4 SE 1008,7 30
16.06.2018 02:00:00 6,1 4,2 7 4 ESE 1008,0 50
16.06.2018 01:00:00 6,2 4,2 14 8 SSE 1007,6 50
16.06.2018 00:00:00 5,9 3,6 4 2 ESE 1007,4 45
15.06.2018 23:00:00 7,2 3,4 14 8 SSE 1006,5 50
15.06.2018 22:00:00 8,8 4,0 4 2 S 1005,6 45
15.06.2018 21:00:00 9,7 5,7 7 4 S 1004,1 50
15.06.2018 20:00:00 9,9 5,3 7 4 SE 1003,7 50
15.06.2018 19:00:00 8,4 5,2 11 6 SSE 1004,1 50

tt = Température de l'air
td = dewpoint
ff = Vitesse du vent
dd = Direction du vent
ppp = reduced air pressure
vv = visibility

stations d'obs. à proximité